Live Position
Loading 3D Globe...
About Flock 4q-27
Group: 3 satellites
Description loading...
Upcoming Passes
Passes for default location (London). Set your location on the main map for personalized predictions.
Altitude History
Loading altitude history...
No altitude history available
Two-Line Element Set
1 58282U 23174AC 26106.83912505 .00015511 00000-0 26519-3 0 9999
2 58282 97.3823 195.7022 0004220 20.0784 340.0633 15.51360519136234
Epoch: Apr 16, 2026 •
Age: 14 hours
Current Status
Altitude 425.5 km
Velocity 7.66 km/s
Sub-Earth Point 82.13°N,
82.39°E
Launch Date Nov 11, 2023
Age 2.4 years
Type earth observation
Technical Details
Classification Payload
Mass 5.70 kg
Dry Mass 5.70 kg
Total Mass 5.70 kg
Length 0.30 m
Diameter 0.10 m
Span 0.30 m
Shape Box+2 pan
Manufacturer PLAN
Bus Type Cubesat 3U
Phase Status In Orbit
Owner/State PLAN/US
Most Searched
Loading...